This is the latest recevied weather packets stored in our database for station/object CN8UN-10. If no packets are shown the sender has not sent any weather packets the latest 1 day(s).
| Time | Temp. | Humidity | Pressure | Rain* | Wind** | Luminosity | Snow |
|---|---|---|---|---|---|---|---|
| 1778046596 | 17.22° C | 100% | 0 hPa | 0 mm | 1.34 m/s, 233° | - | - |
| 1778046296 | 17.78° C | 100% | 0 hPa | 0 mm | 0 m/s | - | - |
| 1778045996 | 17.22° C | 100% | 0 hPa | 0 mm | 1.79 m/s, 230° | - | - |
| 1778045696 | 17.22° C | 100% | 0 hPa | 0 mm | 1.79 m/s, 233° | - | - |
| 1778045396 | 17.22° C | 100% | 0 hPa | 0 mm | 0.89 m/s, 230° | - | - |
| 1778045096 | 17.22° C | 100% | 0 hPa | 0 mm | 0.89 m/s, 222° | - | - |
| 1778044796 | 17.22° C | 100% | 0 hPa | 0 mm | 0.89 m/s, 210° | - | - |
| 1778044496 | 17.22° C | 100% | 0 hPa | 0 mm | 0.89 m/s, 213° | - | - |
| 1778044196 | 17.22° C | 100% | 0 hPa | 0 mm | 0.89 m/s, 227° | - | - |
| 1778043896 | 17.22° C | 100% | 0 hPa | 0 mm | 0.89 m/s, 230° | - | - |
| 1778043596 | 17.78° C | 100% | 0 hPa | 0 mm | 1.79 m/s, 226° | - | - |
| 1778043296 | 17.78° C | 100% | 0 hPa | 0 mm | 1.34 m/s, 220° | - | - |
| 1778042996 | 17.22° C | 100% | 0 hPa | 0 mm | 0.89 m/s, 230° | - | - |
| 1778042696 | 17.78° C | 100% | 0 hPa | 0 mm | 0.45 m/s, 236° | - | - |
| 1778042396 | 17.78° C | 100% | 0 hPa | 0 mm | 0.89 m/s, 213° | - | - |
| 1778042096 | 17.78° C | 100% | 0 hPa | 0 mm | 0.89 m/s, 236° | - | - |
| 1778041796 | 17.22° C | 100% | 0 hPa | 0 mm | 0 m/s | - | - |
| 1778041496 | 17.78° C | 100% | 0 hPa | 0 mm | 0 m/s | - | - |
| 1778041196 | 17.78° C | 100% | 0 hPa | 0 mm | 0.45 m/s, 234° | - | - |
| 1778040896 | 17.78° C | 100% | 0 hPa | 0 mm | 0.45 m/s, 206° | - | - |
| 1778040596 | 17.78° C | 100% | 0 hPa | 0 mm | 0.89 m/s, 210° | - | - |
| 1778040296 | 17.78° C | 100% | 0 hPa | 0 mm | 0 m/s | - | - |
| 1778039996 | 17.78° C | 100% | 0 hPa | 0 mm | 0.45 m/s, 229° | - | - |
| 1778039696 | 17.78° C | 100% | 0 hPa | 0 mm | 1.34 m/s, 213° | - | - |
| 1778039396 | 17.78° C | 100% | 0 hPa | 0 mm | 0.45 m/s, 240° | - | - |
* Rain latest hour (hover to see other rain measurements)
** Current wind speed in m/s (hover to see current wind gust speed)